PROBA-1 1 26958U 01049B 26151.47566405 .00004185 00000+0 27142-3 0 9992 2 26958 97.9599 159.4262 0055100 177.5156 182.6355 15.07427815341101 CUTE-1 (CO-55) 1 27844U 03031E 26151.45858380 .00000395 00000+0 18977-3 0 9999 2 27844 98.6737 160.2281 0008544 229.3477 130.6960 14.24324751189299 CUBESAT XI-IV (CO-57) 1 27848U 03031J 26151.43865949 .00000338 00000+0 16732-3 0 9994 2 27848 98.6768 159.9343 0008273 250.2113 109.8174 14.23611357188991 APRIZESAT 4 1 35684U 09041D 26151.19673426 .00001043 00000+0 13071-3 0 9995 2 35684 98.1414 226.1787 0043660 18.5070 341.7719 14.83853785908841 APRIZESAT 3 1 35686U 09041F 26151.37990576 .00003230 00000+0 28109-3 0 9993 2 35686 98.2047 303.8014 0063128 121.8439 238.8947 14.96187585913869 PROBA-2 1 36037U 09059B 26151.45920512 .00000261 00000+0 71387-4 0 9993 2 36037 98.2447 335.0443 0012698 337.9046 22.1602 14.54854681879097 APRIZESAT 5 1 37792U 11044E 26151.38753139 .00001537 00000+0 20089-3 0 9999 2 37792 98.2453 83.9529 0053472 57.6077 303.0292 14.81035486796304 APRIZESAT 6 1 37793U 11044F 26151.35552520 .00000965 00000+0 14300-3 0 9991 2 37793 98.2377 61.5109 0043972 138.4244 339.8016 14.76889458794662 PROBA-V 1 39159U 13021A 26151.46164449 .00000092 00000+0 58471-4 0 9996 2 39159 98.3576 130.8949 0004276 165.5075 194.6228 14.23593210678732 APRIZESAT 7 1 39416U 13066A 26151.44951900 .00001432 00000+0 14720-3 0 9992 2 39416 97.7699 104.9113 0034240 266.8231 92.9070 14.91524530678734 APRIZESAT 8 1 39425U 13066K 26151.39325292 .00001580 00000+0 17679-3 0 9995 2 39425 97.8214 99.0966 0045523 343.1362 16.8339 14.87615024677172 BUGSAT-1 (TITA) 1 40014U 14033E 26151.52956060 .00008202 00000+0 43432-3 0 9998 2 40014 98.0426 243.1065 0027122 236.1417 123.7232 15.15391916653318 SAUDISAT 4 1 40016U 14033G 26151.41417595 .00001071 00000+0 14749-3 0 9999 2 40016 97.7561 298.1315 0045984 126.9392 233.6046 14.79518285643590 APRIZESAT 9 1 40018U 14033J 26151.37467266 .00000805 00000+0 12587-3 0 9998 2 40018 97.9038 284.9863 0064809 254.0283 105.3780 14.74191108641081 APRIZESAT 10 1 40019U 14033K 26151.32387264 .00000559 00000+0 95654-4 0 9996 2 40019 97.9628 278.6615 0078042 328.5031 31.1515 14.70866953639772 TECHDEMOSAT-1 (TDS-1) 1 40076U 14037H 26151.49436083 .00010685 00000+0 60868-3 0 9994 2 40076 98.3809 142.0568 0005289 341.4018 18.7017 15.13014668645708 TECHNOSAT 1 42829U 17042E 26151.42696009 .00004621 00000+0 32987-3 0 9994 2 42829 97.4269 309.7264 0018831 146.2577 213.9852 15.04850695484186 FLYING LAPTOP 1 42831U 17042G 26151.52046747 .00005238 00000+0 41304-3 0 9994 2 42831 97.4612 307.7034 0018657 176.8339 183.3007 15.01027400483958 HAWK-A 1 43765U 18099H 26151.15161671 .00008907 00000+0 36008-3 0 9998 2 43765 97.3924 203.6111 0034302 348.2428 11.8005 15.24417609410502 HAWK-B 1 43794U 18099AN 26151.08721075 .00008586 00000+0 36706-3 0 9990 2 43794 97.3970 202.9980 0032064 6.7424 353.4237 15.22613022410435 HAWK-C 1 43799U 18099AT 26151.10099944 .00010759 00000+0 38921-3 0 9997 2 43799 97.3902 204.3899 0040025 348.3213 11.7094 15.27833741411306 SALSAT 1 46495U 20068K 26151.46470441 .00010004 00000+0 35180-3 0 9993 2 46495 97.8846 153.5149 0009814 12.5129 347.6351 15.29533402312809 HAWK-2C 1 47502U 21006CT 26151.06783038 .00008321 00000+0 25170-3 0 9998 2 47502 97.2288 195.7208 0005095 256.8414 103.2261 15.34436898296875 HAWK-2A 1 47505U 21006CW 26151.07049227 .00008347 00000+0 25239-3 0 9991 2 47505 97.2328 196.3911 0004606 262.3467 97.7253 15.34452167296873 HAWK-2B 1 47508U 21006CZ 26151.06685002 .00009593 00000+0 28911-3 0 9994 2 47508 97.2201 194.7472 0005095 259.0561 101.0109 15.34510583296877 HAWK-3B 1 48931U 21059BE 26151.48552508 .00052907 00000+0 47544-3 0 9993 2 48931 97.6667 346.6326 0004609 43.3946 316.7677 15.68091789275236 HAWK-3C 1 48948U 21059BX 26151.48524019 .00054923 00000+0 49325-3 0 9996 2 48948 97.6791 352.2885 0005110 43.8067 316.3598 15.68095891275238 HAWK-3A 1 48957U 21059CG 26151.48510645 .00052144 00000+0 46868-3 0 9998 2 48957 97.6734 349.5075 0005052 43.9489 316.2172 15.68087201275232 HAWK-5C 1 52754U 22057Y 26151.39971524 .00027549 00000+0 47937-3 0 9993 2 52754 97.6573 309.9959 0005482 130.9317 229.2409 15.50742645223744 HAWK-5B 1 52756U 22057AA 26151.39956862 .00028789 00000+0 50072-3 0 9994 2 52756 97.6582 308.3431 0006002 124.3443 235.8377 15.50743869223746 HAWK-5A 1 52757U 22057AB 26151.39933624 .00028222 00000+0 49093-3 0 9999 2 52757 97.6580 309.1750 0006031 127.9239 232.2558 15.50743387223749 HAWK-6B 1 55324U 23011A 26151.13240163 .00006723 00000+0 28984-3 0 9992 2 55324 40.4986 91.5338 0004678 273.2734 86.7540 15.22767125185242 HAWK-6C 1 55326U 23011C 26151.19736778 .00006230 00000+0 26917-3 0 9999 2 55326 40.4973 87.9963 0004861 266.5669 93.4585 15.22771466185268 HAWK-6A 1 55327U 23011D 26151.19737764 .00006803 00000+0 29317-3 0 9999 2 55327 40.4986 89.6184 0004579 264.0370 95.9917 15.22767892185269 HAWK-7A 1 56191U 23054P 26151.20656006 .00002335 00000+0 90363-4 0 9993 2 56191 97.2727 38.9767 0005078 93.7713 266.4107 15.27158656174439 HAWK-7B 1 56193U 23054R 26151.20649613 .00008446 00000+0 31966-3 0 9993 2 56193 97.2753 37.2341 0004000 100.5248 259.6442 15.27168586174433 HAWK-7C 1 56200U 23054Y 26151.20637190 .00008294 00000+0 31397-3 0 9998 2 56200 97.2729 38.0081 0004212 93.2070 266.9651 15.27167048174436